KDOT RWIS
(Road and Runway Information System) Map and Weather Data
 


 
 

Station
Surface
Air
Wind
Site IDSensor TypeLocationTemperature (°F)Temperature (°F)Humidity (%)Speed (mi/h)Gusts (mi/h)DirectionTime
123002AtmosphericBonner Springs 9736912SSep 1 2026 2:05PM
123002ApproachBonner Springs133     Sep 1 2026 2:05PM
123002DeckBonner Springs131     Sep 1 2026 2:05PM
123014AtmosphericBull Creek 99318 SSWSep 1 2026 2:05PM
123014DeckBull Creek131     Sep 1 2026 2:05PM
123014DepartureBull Creek129     Sep 1 2026 2:05PM
123015AtmosphericLeavenworth 9741411SWSep 1 2026 2:05PM
123015DeckLeavenworth129     Sep 1 2026 2:05PM
123015DepartureLeavenworthUnavailable     Sep 1 2026 2:05PM
123020AtmosphericMayetta 97834754SSWSep 1 2026 2:05PM
123020RoadwayMayetta108     Sep 1 2026 2:05PM
123020DeckMayetta126     Sep 1 2026 2:05PM
505000AtmosphericKTA 1 10022714SSWSep 1 2026 1:50PM
505000ApproachKTA 1124     Sep 1 2026 1:50PM
505000DeckKTA 1135     Sep 1 2026 1:50PM
505001AtmosphericKTA 2 9725913SSWSep 1 2026 1:50PM
505001ApproachKTA 2118     Sep 1 2026 1:50PM
505001DeckKTA 2118     Sep 1 2026 1:50PM
505002AtmosphericKTA 3 9726410SSWSep 1 2026 1:50PM
505002ApproachKTA 3124     Sep 1 2026 1:50PM
505002DeckKTA 3118     Sep 1 2026 1:50PM
505003AtmosphericKTA 4 9726711SSep 1 2026 1:50PM
505003ApproachKTA 4129     Sep 1 2026 1:50PM
505003DeckKTA 4127     Sep 1 2026 1:50PM
505004AtmosphericKTA 5 9527915WSWSep 1 2026 1:50PM
505004RoadwayKTA 5131     Sep 1 2026 1:50PM
505004RoadwayKTA 5133     Sep 1 2026 1:50PM
505006AtmosphericKTA 7 9930611SSep 1 2026 1:52PM
505006ApproachKTA 7131     Sep 1 2026 1:52PM
505006DeckKTA 7122     Sep 1 2026 1:52PM
505007AtmosphericKTA 8 9731610SSWSep 1 2026 1:52PM
505007ApproachKTA 8131     Sep 1 2026 1:52PM
505007DeckKTA 8120     Sep 1 2026 1:52PM
505008AtmosphericKTA 9 9928611SWSep 1 2026 1:52PM
505008ApproachKTA 9140     Sep 1 2026 1:52PM
505008DeckKTA 9124     Sep 1 2026 1:52PM
505009AtmosphericKTA 10 9734410WSWSep 1 2026 1:52PM
505009ApproachKTA 10126     Sep 1 2026 1:52PM
505009DeckKTA 10122     Sep 1 2026 1:52PM
505010AtmosphericWebb 10229714SSESep 1 2026 2:05PM
505010DeckWebbUnavailable     Sep 1 2026 2:05PM
505010NullWebb133     Sep 1 2026 2:05PM
505014AtmosphericI-135 97301117SSep 1 2026 2:05PM
505014ApproachI-135109     Sep 1 2026 2:05PM
505014DeckI-135Unavailable     Sep 1 2026 2:05PM
540000AtmosphericBlue Rapids 97341215SSWSep 1 2026 2:05PM
540000DeckBlue Rapids122     Sep 1 2026 2:05PM
540000DepartureBlue RapidsUnavailable     Sep 1 2026 2:05PM
540001AtmosphericSabetha 9741917SWSep 1 2026 2:05PM
540001ApproachSabetha135     Sep 1 2026 2:05PM
540001DeckSabetha133     Sep 1 2026 2:05PM
540002AtmosphericWestgate 10028912SSep 1 2026 2:05PM
540002DeckWestgateUnavailable     Sep 1 2026 2:05PM
540002DepartureWestgateUnavailable     Sep 1 2026 2:05PM
540003AtmosphericEmporia 99311116WSWSep 1 2026 2:05PM
540003ApproachEmporia131     Sep 1 2026 2:05PM
540003DeckEmporia113     Sep 1 2026 2:05PM
540005AtmosphericLawrence 993249SESep 1 2026 2:05PM
540005ApproachLawrence127     Sep 1 2026 2:05PM
540005DeckLawrence133     Sep 1 2026 2:05PM
540006AtmosphericTroy 9940612SSESep 1 2026 2:05PM
540006DeckTroy129     Sep 1 2026 2:05PM
540006DepartureTroy136     Sep 1 2026 2:05PM
540007AtmosphericManhattan 993545SSWSep 1 2026 2:05PM
540007DepartureManhattan127     Sep 1 2026 2:05PM
540007DeckManhattan131     Sep 1 2026 2:05PM
541000AtmosphericElkhart 93281114SSESep 1 2026 2:05PM
541000ApproachElkhart133     Sep 1 2026 2:05PM
541000DeckElkhart131     Sep 1 2026 2:05PM
541001AtmosphericSyracuse 9135815SSep 1 2026 2:05PM
541001Out of Service for WinterSyracuse118     Sep 1 2026 2:05PM
541001DeckSyracuse115     Sep 1 2026 2:05PM
541003AtmosphericFord 10026510SSep 1 2026 2:05PM
541003DeckFord131     Sep 1 2026 2:05PM
541003DepartureFord135     Sep 1 2026 2:05PM
541004AtmosphericScott 93281016SSWSep 1 2026 2:05PM
541004DepartureScottUnavailable     Sep 1 2026 2:05PM
541005AtmosphericNess 9727814SSWSep 1 2026 2:05PM
541005DeckNessUnavailable     Sep 1 2026 2:05PM
541005DepartureNessUnavailable     Sep 1 2026 2:05PM
541007AtmosphericGarden City 93331119SSep 1 2026 2:05PM
541007ApproachGarden City126     Sep 1 2026 2:05PM
543000AtmosphericJunction City 993049SWSep 1 2026 2:05PM
543000ApproachJunction City127     Sep 1 2026 2:05PM
543000DeckJunction City129     Sep 1 2026 2:05PM
543001AtmosphericEllsworth 99311016SWSep 1 2026 2:05PM
543001RoadwayEllsworth129     Sep 1 2026 2:05PM
543002AtmosphericMcPherson 10025716SSWSep 1 2026 2:05PM
543002ApproachMcPherson126     Sep 1 2026 2:05PM
543002DeckMcPherson124     Sep 1 2026 2:05PM
543003AtmosphericSalina 104291317SSWSep 1 2026 2:05PM
543003DepartureSalina90     Sep 1 2026 2:05PM
543003RoadwaySalina131     Sep 1 2026 2:05PM
543004AtmosphericConcordia 97331217SSep 1 2026 2:05PM
543004ApproachConcordia131     Sep 1 2026 2:05PM
543004DeckConcordia126     Sep 1 2026 2:05PM
543005AtmosphericPeabody 9927916SSep 1 2026 2:05PM
543005ApproachPeabody138     Sep 1 2026 2:05PM
543005DeckPeabody133     Sep 1 2026 2:05PM
560000AtmosphericEdson 9122916SSWSep 1 2026 2:05PM
560000RoadwayEdson126     Sep 1 2026 2:05PM
560000RoadwayEdson120     Sep 1 2026 2:05PM
560001AtmosphericOakley 9334810SSWSep 1 2026 2:05PM
560001ApproachOakley79     Sep 1 2026 2:05PM
560001DeckOakley127     Sep 1 2026 2:05PM
560002AtmosphericAtwood 913849SWSep 1 2026 2:05PM
560002ApproachAtwoodUnavailable     Sep 1 2026 2:05PM
560002DeckAtwood127     Sep 1 2026 2:05PM
560003AtmosphericJennings 933424SWSep 1 2026 2:05PM
560003ApproachJennings135     Sep 1 2026 2:05PM
560003DeckJennings129     Sep 1 2026 2:05PM
560004AtmosphericWakeeney 953668SSep 1 2026 2:05PM
560004ApproachWakeeney129     Sep 1 2026 2:05PM
560004DeckWakeeneyUnavailable     Sep 1 2026 2:05PM
560005AtmosphericWalker 99201217SSWSep 1 2026 2:05PM
560005ApproachWalker88     Sep 1 2026 2:05PM
560005DeckWalker124     Sep 1 2026 2:05PM
560006AtmosphericBow Creek(Stockton) 9727611SSep 1 2026 2:05PM
560006ApproachBow Creek(Stockton)127     Sep 1 2026 2:05PM
560006DeckBow Creek(Stockton)127     Sep 1 2026 2:05PM
560007AtmosphericLebanon 9034712SSESep 1 2026 2:05PM
560007ApproachLebanon136     Sep 1 2026 2:05PM
560007DeckLebanon129     Sep 1 2026 2:05PM
560008AtmosphericWallace 912879WSep 1 2026 2:05PM
560008ApproachWallace133     Sep 1 2026 2:05PM
560008DeckWallace126     Sep 1 2026 2:05PM
572000AtmosphericGreat Bend 9729916SSWSep 1 2026 2:05PM
572000ApproachGreat Bend131     Sep 1 2026 2:05PM
572000DeckGreat Bend126     Sep 1 2026 2:05PM
572001AtmosphericPratt 992647WSWSep 1 2026 2:05PM
572001ApproachPratt131     Sep 1 2026 2:05PM
572001DeckPratt135     Sep 1 2026 2:05PM
572002AtmosphericAnthony 10030510SSESep 1 2026 2:05PM
572002ApproachAnthonyUnavailable     Sep 1 2026 2:05PM
572002DeckAnthony135     Sep 1 2026 2:05PM
573000AtmosphericEureka 9529614WSep 1 2026 2:05PM
573001AtmosphericGarnett 973435WSWSep 1 2026 2:05PM
573001ApproachGarnett135     Sep 1 2026 2:05PM
573001DeckGarnettUnavailable     Sep 1 2026 2:05PM
573003AtmosphericChetopa 973715WSWSep 1 2026 2:05PM
573003DeckChetopa129     Sep 1 2026 2:05PM
573003DepartureChetopaUnavailable     Sep 1 2026 2:05PM
573004AtmosphericChanute 9129111SSESep 1 2026 2:05PM
573004ApproachChanute86     Sep 1 2026 2:05PM
573004DeckChanute133     Sep 1 2026 2:05PM